Regional Weather Roundup
Issued by NWS

Home | Current Version | Previous Version | Text Only | Print | Product List | Glossary On
Versions: 1 2 3 4 5 6 7 8 9 10 11 12 13 14 15 16 17 18 19 20 21 22 23 24 25 26 27
000
ASUS42 KKEY 200310
RWRKEY

FLORIDA REGIONAL WEATHER ROUNDUP FOR THE FLORIDA KEYS
NATIONAL WEATHER SERVICE KEY WEST FLORIDA
1100 PM EDT SAT APR 19 2014

...SOUTH FLORIDA AND THE KEYS...

CITY           SKY/WX    TMP DP  RH WIND       PRES   REMARKS
FORT MYERS     CLOUDY    68  58  70 NW8       29.99R
SW REGIONAL AP MOCLDY    67  57  70 NW6       30.00R
NAPLES         CLOUDY    70  61  73 NW9G18    30.00R
MIAMI          PTCLDY    71  61  70 W9        30.01R
WEST KENDALL   CLEAR     67  62  84 W7        30.01R
HOMESTEAD      CLEAR     69  63  80 NW6       30.01S
MARATHON       PTCLDY    74  64  71 NW14      30.02R
BOCA CHICA NAS PTCLDY    73  63  70 NW13      30.03R
KEY WEST INTL  PTCLDY    74  65  73 NW12      30.04R

...INTERNATIONAL WEATHER...

CITY           SKY/WX    TMP DP  RH WIND       PRES   REMARKS
NASSAU BAHAMAS PTCLDY    77  75  94 S9        29.98R
CANCUN MEXICO  PTCLDY    75  70  83 CALM      30.04R
COZUMEL MEXICO PTCLDY    73  72  94 NE3       30.03R

ADJACENT COASTAL WATERS...

STATION/POSITION TIME  SKY/WX   TEMP    WIND        PRES    WAVE
                                AIR SEA DIR/SP/G            HT/PER
                 (UTC)          (F)     (DEG/KT/KT) (MB)    (FT/S)
PULASKI SHOAL LI NOT AVBL
SAND KEY         NOT AVBL
SOMBRERO KEY     0300            74     310/ 15/ 16 1017.3R
LONG KEY         0300            74 81  310/ 13/ 17 1017.3R
MOLASSES REEF    0300            73 78  330/ 16/ 18 1016.2R
FOWEY ROCKS      0300            72 78  280/ 16/ 18 1016.0R
Buoy 42080       NOT AVBL

$$



USA.gov is the U.S. government's official web portal to all federal, state and local government web resources and services.